Regional Weather Roundup
Issued by NWS Charleston, SC

Current Version | Previous Version | Graphics & Text | Print | Product List | Glossary On
Versions: 1 2 3 4 5 6 7 8 9 10 11 12 13 14 15 16 17 18 19 20 21 22 23 24 25 26 27 28 29 30 31 32 33 34 35 36 37 38 39 40 41 42 43 44 45 46 47 48 49 50
000
ASUS42 KCHS 280712
RWRCHS

REGIONAL WEATHER ROUNDUP
NATIONAL WEATHER SERVICE CHARLESTON SC
300 AM EDT TUE APR 28 2015

NOTE: "FAIR" INDICATES FEW OR NO CLOUDS BELOW 12,000 FEET WITH NO
SIGNIFICANT WEATHER AND/OR OBSTRUCTIONS TO VISIBILITY.

NOT ALL STATIONS ARE QUALITY CONTROLLED BY THE NATIONAL
WEATHER SERVICE. USE DATA WITH CAUTION...ESPECIALLY
DEWPOINT OBSERVATIONS.

SCZ027-030-031-034>040-042>050-280800-
...SOUTHEAST SOUTH CAROLINA...

CITY           SKY/WX    TMP DP  RH WIND       PRES   REMARKS
N CHARLESTON   MOCLDY    59  41  51 NE9       29.90R
WATERFRONT PRK   N/A     63 N/A N/A NE18G25     N/A
MOUNT PLEASANT FAIR      57  48  72 MISG      29.91R
PINOPOLIS      NOT AVBL
MONCKS CORNER  FAIR      57  43  58 CALM      29.91S
SUMMERVILLE    FAIR      55  46  71 NE3       29.92S
BEAUFORT MCAS  PTCLDY    58  56  93 CALM      29.87F
BEAUFORT ARPT  FAIR      61  61 100 CALM      29.86F
HILTON HEAD IS MOCLDY    59  57  94 CALM      29.88S
WALTERBORO     FAIR      55  46  71 NE13      29.90R
ALLENDALE      FAIR      57  52  82 N13G18    29.88R

...SOUTHERN MIDLANDS AND PEE DEE...

CITY           SKY/WX    TMP DP  RH WIND       PRES   REMARKS
GEORGETOWN     NOT AVBL
KINGSTREE      NOT AVBL
ORANGEBURG     MOCLDY    57  39  51 E5        29.91S
BARNWELL       FAIR      59  46  63 NE9       29.91R
AIKEN          FAIR      52  41  66 E6        29.94S
MANNING        FAIR      54  16  22 NE3       29.92S
COLUMBIA       MOCLDY    58  36  43 E6        29.92R
SUMTER         MOCLDY    51  41  69 NE6       29.91R
FLORENCE       PTCLDY    52  37  56 NE7       29.92S
MYRTLE BEACH   MOCLDY    57  37  47 N12       29.93R
N MYRTLE BEACH PTCLDY    54  38  54 N7        29.90R

$$

GAZ063-065-086>088-099>101-113>116-118-119-134>141-150-280800-
...SOUTHEAST GEORGIA...

CITY           SKY/WX    TMP DP  RH WIND       PRES   REMARKS
SAVANNAH ARPT  MOCLDY    61  58  90 CALM      29.87F
HUNTER AAF     MOCLDY    60  60 100 E2        29.85S
FORT STEWART   MOCLDY    61  59  94 CALM      29.85S FOG
STATESBORO       N/A     55  55 100 CALM      29.87R
SYLVANIA       PTSUNNY   55  55 100 CALM      29.88S
CLAXTON        FAIR      57  57 100 CALM      29.87S

...CSRA...CENTRAL AND FAR SOUTHEAST GEORGIA...

CITY           SKY/WX    TMP DP  RH WIND       PRES   REMARKS
THOMSON        CLOUDY    59  56  91 NE9       29.94R
AUGUSTA-BUSH   CLOUDY    56  46  69 E8        29.90R
AUGUSTA-DANIEL CLOUDY    60  42  51 E13G21    29.90R
SWAINSBORO     NOT AVBL
VIDALIA        MOCLDY    61  57  88 CALM      29.87R
EASTMAN        FAIR      58  58 100 CALM      29.89S
HAZLEHURST     FAIR      65  62  90 SE3       29.86R
ALMA           PTCLDY    62  60  93 CALM      29.86R
WAYCROSS       MOCLDY    65  65  99 E3        29.85S FOG
JESUP          PTSUNNY   64  63  94 CALM      29.86F
BAXLEY         MOCLDY    63  63 100 CALM      29.86R
BRUNSWICK      CLOUDY    63  59  88 NE3       29.85F
SAINT SIMONS   CLOUDY    67  56  67 E10       29.84F

$$

SCZ027-028-034-036>038-045-046-048>050-GAZ119-141-280800-
...LAKE AND SUPPLEMENTAL COASTAL OBSERVATIONS...

STATION/POSITION TIME  TEMP    WIND        PRES    WAVE   SWELL
                       AIR SEA DIR/SP/G            HT/PER HT/PER/DIR
                 (UTC) (F)     (DEG/KT/KT) (MB)    (FT/S) (FT/S/D)
UPR LAKE MARION  NOT AVBL
WINYAH BAY       NOT AVBL
LAKE MURRAY      0600   58      40/  3/  5 1012.5F
ACE BASIN NERRS  NOT AVBL
FORT PULASKI     0600   64 70  130/  3/  3 1012.0F
SAPELO ISLAND    0600   62     110/  3     1011.0S

$$

ANZ835-935-AMZ111-154-330-350-352-354-370-450-454-472-280800-
...C-MAN AND BUOY OBSERVATIONS...

STATION/POSITION TIME  TEMP    WIND        PRES    WAVE   SWELL
                       AIR SEA DIR/SP/G            HT/PER HT/PER/DIR
                 (UTC) (F)     (DEG/KT/KT) (MB)    (FT/S) (FT/S/D)
BUOY 41004       0650   67 72  330/  6/  8 1011.3F   2/ 9   2/ 9
BUOY 41008       0650   67 69  100/  8/ 10 1011.3F   2/ 6   2/ 80/ 6
FOLLY BEACH CMAN 0600   64     280/  2/  2 1011.9R
CAPERS NEARSHORE 0608   67     300/  6/  8 1011.9R
FRIPP NEARSHORE  0600   67     210/  4/  4 1011.6S


STATION/POSITION TIME  TEMP    WIND        PRES    WAVE   SWELL
                       AIR SEA DIR/SP/G            HT/PER HT/PER/DIR
                 (UTC) (F)     (DEG/KT/KT) (MB)    (FT/S) (FT/S/D)
5E ST. MARYS GA  0621      70                N/A     2/ 7
FRYING PAN BUOY  0650   65 71   10/ 19/ 25 1011.6R   4/ 4   2/100/ 8
BUOY 41025       0650   59 74  340/ 12/ 16 1010.4F   3/ 8   3/ 60/ 8
CAPE LOOKOUT NC  0600   57     360/  7/  8 1011.3F
BUOY 41002       0650   66 70  350/  4/  6 1010.3F   5/ 8   5/ 10/ 8
BUOY 41010       0620   74 79   10/  8/  8 1010.9F
ST AUGUSTINE FL  0700   71 69   90/  9/ 10 1010.5F


$$



USA.gov is the U.S. government's official web portal to all federal, state and local government web resources and services.